Regional Weather Roundup
Issued by NWS

Home | Current Version | Previous Version | Text Only | Print | Product List | Glossary On
Versions: 1 2 3 4 5 6 7 8 9 10 11 12 13 14 15 16 17 18 19 20 21 22 23 24 25 26 27 28 29 30 31 32 33 34 35 36 37 38 39 40 41 42 43 44 45 46 47 48 49 50
000
ASUS43 KTOP 221859
RWRKS

WEATHER ROUNDUP FOR KANSAS
NATIONAL WEATHER SERVICE GOODLAND KS
100 PM CST MON JAN 22 2018

NOTE:  "FAIR" INDICATES FEW OR NO CLOUDS BELOW 12,000 FEET WITH NO
SIGNIFICANT WEATHER AND/OR OBSTRUCTIONS TO VISIBILITY.

KSZ001>006-013>018-027>032-041>047-222000-
NORTHWEST KANSAS

CITY           SKY/WX    TMP DP  RH WIND       PRES   REMARKS
GOODLAND       FLURRIES  29  20  69 NW23      29.93F WCI  15
HAYS           CLOUDY    35  27  72 NW28G36   29.78F WCI  22
HILL CITY      CLOUDY    33  26  75 NW25G39   29.84F WCI  20
RUSSELL        CLOUDY    35  27  72 NW35G46   29.74S WCI  21
$$

KSZ061>065-074>080-084>089-222000-
SOUTHWEST KANSAS

CITY           SKY/WX    TMP DP  RH WIND       PRES   REMARKS
DODGE CITY     MOSUNNY   40  20  44 NW29G51   29.87F WCI  29
GARDEN CITY    SUNNY     39  19  44 NW37G49   29.93F WCI  26
GREAT BEND     CLOUDY    36  28  73 NW30G46   29.78R WCI  23
LIBERAL        SUNNY     43  16  33 N32G43    29.97F
$$

KSZ066>073-081>083-090>101-222000-
SOUTHEAST KANSAS

CITY           SKY/WX    TMP DP  RH WIND       PRES   REMARKS
COFFEYVILLE    CLOUDY    42  32  67 W18G35    29.66R
HUTCHINSON     FLURRIES  35  32  88 NW35G44   29.70R WCI  21
MEDICINE LODGE   N/A     43  27  53 NW30G46   29.82F
NEWTON         CLOUDY    33  29  85 NW25G35   29.65R WCI  20
PARSONS        CLOUDY    41  31  67 W23G30    29.63S
WICHITA INTL   FLURRIES  37  31  78 NW28G35   29.71R WCI  25
WICHITA JABRA  CLOUDY    35  31  85 NW22G36   29.68R WCI  23
WICHITA MCCONL LGT RAIN  35  30  83 NW18G26   29.69R WCI  24
WINFIELD       LGT RAIN  39  31  72 NW32G41   29.74S WCI  27
$$

KSZ007>012-019>026-033>040-048>060-102>105-222000-
NORTHEAST KANSAS

CITY           SKY/WX    TMP DP  RH WIND       PRES   REMARKS
CONCORDIA      CLOUDY    32  28  85 NW23G40   29.62R WCI  19
EMPORIA        CLOUDY    33  30  88 W26G35    29.56R WCI  20
LAWRENCE       MIX PCPN  37  35  92 W16       29.45F WCI  28
MANHATTAN      LGT SNOW  33  28  81 NW10G20   29.57R WCI  25
OLATHE IND     LGT RAIN  36  35  96 W14       29.45F WCI  27
OLATHE EXE     MIX PCPN  36  35  96 SW15      29.44S WCI  27
SALINA         LGT SNOW  34  32  92 NW29      29.66S VSB 3/4 WCI  20
TOPEKA BILLARD LGT RAIN  35  34  96 W15G23    29.47S WCI  25
TOPEKA FORBES  CLOUDY    35  33  92 W21G29    29.47S FOG     WCI  24
$$



USA.gov is the U.S. government's official web portal to all federal, state and local government web resources and services.